WetterOnline ( https://www.wetteronline.de )

Wetter aktuell Mölln

Aktuelles Wetter: Lübeck/Blankensee (15m)

6-stündlich | Neueste Meldungen
Ortszeit Temperatur Wetter
Sa, 28.11. 1:00 -1.4° C Nebel
Fr, 27.11. 19:00 0.6° C Nebel
Fr, 27.11. 13:00 2.2° C Nebel
Fr, 27.11. 7:00 -1.2° C Nebel
Fr, 27.11. 1:00 0.9° C Nebel
Do, 26.11. 19:00 5.5° C bedeckt
Do, 26.11. 13:00 9.3° C bedeckt
Do, 26.11. 7:00 4.9° C Sprühregen
Ortszeit Temperatur Wetter
Sa, 28.11. 1:00 -1.4° C Nebel
Sa, 28.11. 0:30 -1.4° C Nebel
Sa, 28.11. 0:20 -1.4° C Nebel
Sa, 28.11. 0:10 -1.2° C Nebel
Sa, 28.11. 0:00 -1.1° C Nebel
Fr, 27.11. 23:50 -1.1° C Nebel
Fr, 27.11. 23:30 -0.7° C Nebel
Fr, 27.11. 23:00 -0.0° C Nebel
Fr, 27.11. 22:30 0.6° C Nebel
Fr, 27.11. 22:00 0.8° C Nebel
Fr, 27.11. 21:30 1.0° C Nebel
Ortszeit Relative Feuchte Sichtweite
Sa, 28.11. 1:00 100% 0.9 km
Fr, 27.11. 19:00 100% 100 m
Fr, 27.11. 13:00 99% 0.5 km
Fr, 27.11. 7:00 100% <100 m
Fr, 27.11. 1:00 100% 0.3 km
Do, 26.11. 19:00 98% 19 km
Do, 26.11. 13:00 97% 7 km
Do, 26.11. 7:00 100% 1.6 km
Ortszeit Relative Feuchte Sichtweite
Sa, 28.11. 1:00 100% 0.9 km
Sa, 28.11. 0:30 100% 0.2 km
Sa, 28.11. 0:20 100% -
Sa, 28.11. 0:10 100% -
Sa, 28.11. 0:00 100% 0.3 km
Fr, 27.11. 23:50 100% -
Fr, 27.11. 23:30 100% 100 m
Fr, 27.11. 23:00 100% 100 m
Fr, 27.11. 22:30 100% <100 m
Fr, 27.11. 22:00 100% <100 m
Fr, 27.11. 21:30 100% <100 m
Ortszeit Niederschlagsmenge Niederschlagsart
Sa, 28.11. 1:00 0.0 l/m2 in 6 Std. -
Fr, 27.11. 19:00 0.0 l/m2 in 12 Std. -
Fr, 27.11. 13:00 0.0 l/m2 in 6 Std. -
Fr, 27.11. 7:00 0.0 l/m2 in 12 Std. -
Fr, 27.11. 1:00 0.0 l/m2 in 6 Std. -
Do, 26.11. 19:00 0.2 l/m2 in 12 Std. -
Do, 26.11. 13:00 0.2 l/m2 in 6 Std. Regen
Do, 26.11. 7:00 0.1 l/m2 in 12 Std. Sprühregen
Ortszeit Niederschlagsmenge Niederschlagsart
Sa, 28.11. 1:00 keine Meldung -
Sa, 28.11. 0:30 0.0 l/m2 in 1 Std. -
Sa, 28.11. 0:20 keine Meldung -
Sa, 28.11. 0:10 keine Meldung -
Sa, 28.11. 0:00 0.0 l/m2 in 1 Std. -
Fr, 27.11. 23:50 keine Meldung -
Fr, 27.11. 23:30 0.0 l/m2 in 1 Std. -
Fr, 27.11. 23:00 0.0 l/m2 in 1 Std. -
Fr, 27.11. 22:30 0.0 l/m2 in 1 Std. -
Fr, 27.11. 22:00 0.0 l/m2 in 1 Std. -
Fr, 27.11. 21:30 0.0 l/m2 in 1 Std. -
Ortszeit Stärke Spitze Richtung
km/h Bft. km/h Grad Sektor
Sa, 28.11. 1:00 - - 7 - -
Fr, 27.11. 19:00 4 1 7 110° O
Fr, 27.11. 13:00 0 0 6 - -
Fr, 27.11. 7:00 0 0 9 - -
Fr, 27.11. 1:00 4 1 11 230° SW
Do, 26.11. 19:00 4 1 20 220° SW
Do, 26.11. 13:00 11 2 24 250° W
Do, 26.11. 7:00 6 1 20 190° S
Ortszeit Stärke Spitze Richtung
km/h Bft. km/h Grad Sektor
Sa, 28.11. 1:00 - - 7 - -
Sa, 28.11. 0:30 - - 7 - -
Sa, 28.11. 0:20 - - - - -
Sa, 28.11. 0:10 - - - - -
Sa, 28.11. 0:00 4 1 7 50° NO
Fr, 27.11. 23:50 - - - - -
Fr, 27.11. 23:30 4 1 7 40° NO
Fr, 27.11. 23:00 4 1 7 40° NO
Fr, 27.11. 22:30 4 1 7 40° NO
Fr, 27.11. 22:00 2 1 6 30° NO
Fr, 27.11. 21:30 4 1 4 30° NO
Ortszeit Untergrenze Bedeckung Gattung
total tief tief mittel hoch
Sa, 28.11. 1:00 <30 m 8/8 0/8 - - -
Fr, 27.11. 19:00 <30 m 8/8 0/8 - - -
Fr, 27.11. 13:00 <30 m 8/8 0/8 - - -
Fr, 27.11. 7:00 <30 m 8/8 0/8 - - -
Fr, 27.11. 1:00 <30 m 7/8 0/8 - - -
Do, 26.11. 19:00 4500 m 8/8 8/8 - - -
Do, 26.11. 13:00 180 m 8/8 8/8 - - -
Do, 26.11. 7:00 60 m 8/8 8/8 - - -
Ortszeit Bedeckungsgrad in Achtel und Wolkenuntergrenze
Sa, 28.11. 1:00 8(<30m)
Sa, 28.11. 0:30 8(<30m)
Sa, 28.11. 0:20 8(<30m)
Sa, 28.11. 0:10 8(<30m)
Sa, 28.11. 0:00 8(<30m)
Fr, 27.11. 23:50 8(<30m)
Fr, 27.11. 23:30 8(<30m)
Fr, 27.11. 23:00 8(<30m)
Fr, 27.11. 22:30 8(<30m)
Fr, 27.11. 22:00 8(<30m)
Fr, 27.11. 21:30 8(<30m)
Ortszeit Luftdruck NN (hPa) Tendenz (hPa in 3 Std.)
Sa, 28.11. 1:00 1024 + 0,2
Fr, 27.11. 19:00 1023 + 0,7
Fr, 27.11. 13:00 1023 0,0
Fr, 27.11. 7:00 1022 + 0,3
Fr, 27.11. 1:00 1021 + 0,5
Do, 26.11. 19:00 1020 + 0,9
Do, 26.11. 13:00 1019 + 0,6
Do, 26.11. 7:00 1017 - 0,1
Ortszeit Luftdruck NN (hPa) Tendenz (hPa in 3 Std.)
Sa, 28.11. 1:00 1024 + 0,2
Sa, 28.11. 0:30 1024 + 0,3
Sa, 28.11. 0:20 1024 keine Meldung
Sa, 28.11. 0:10 1024 keine Meldung
Sa, 28.11. 0:00 1024 + 0,3
Fr, 27.11. 23:50 1024 keine Meldung
Fr, 27.11. 23:30 1024 + 0,3
Fr, 27.11. 23:00 1024 + 0,4
Fr, 27.11. 22:30 1024 + 0,3
Fr, 27.11. 22:00 1024 + 0,4
Fr, 27.11. 21:30 1024 + 0,5
Ortszeit Schneehöhe (cm)
Sa, 28.11. 1:00 0
Fr, 27.11. 19:00 0
Fr, 27.11. 13:00 0
Fr, 27.11. 7:00 0
Fr, 27.11. 1:00 0
Do, 26.11. 19:00 0
Do, 26.11. 13:00 0
Do, 26.11. 7:00 0
Ortszeit Schneehöhe (cm)
Sa, 28.11. 1:00 0
Sa, 28.11. 0:30 -
Sa, 28.11. 0:20 -
Sa, 28.11. 0:10 0
Sa, 28.11. 0:00 0
Fr, 27.11. 23:50 0
Fr, 27.11. 23:30 0
Fr, 27.11. 23:00 0
Fr, 27.11. 22:30 0
Fr, 27.11. 22:00 0
Fr, 27.11. 21:30 0
Link zu dieser Seite / Seite empfehlen

Das Wetter in ...